K6OUA-11 Weather Reports


time (UTC)temp
C
wind
direction
speed
KPH
gust
KPH
rain 1hr
cm
rain 24hr
cm
rain mn
cm
humidity
%
barometer
mb
20170528220614 27 240 8.0 19.3 0.00 0.00 0.00 44 1009.7
20170528220513 27 240 8.0 19.3 0.00 0.00 0.00 44 1009.7
20170528220212 27 256 9.7 20.9 0.00 0.00 0.00 44 1009.6
20170528220016 27 252 9.7 20.9 0.00 0.00 0.00 43 1009.7
20170528215912 27 252 9.7 20.9 0.00 0.00 0.00 43 1009.7
20170528215612 27 263 11.3 14.5 0.00 0.00 0.00 44 1009.6
20170528215406 27 261 14.5 17.7 0.00 0.00 0.00 44 1009.6
20170528215309 27 261 14.5 17.7 0.00 0.00 0.00 44 1009.6
20170528215130 28 261 6.4 17.7 0.00 0.00 0.00 43 1009.7
20170528215008 28 261 6.4 17.7 0.00 0.00 0.00 43 1009.7
20170528214708 28 241 8.0 16.1 0.00 0.00 0.00 43 1009.6
20170528214407 28 254 3.2 14.5 0.00 0.00 0.00 43 1009.8
20170528214204 28 265 8.0 9.7 0.00 0.00 0.00 44 1009.7
20170528214104 28 265 8.0 9.7 0.00 0.00 0.00 44 1009.7
20170528213939 27 256 9.7 14.5 0.00 0.00 0.00 44 1009.7
20170528213803 27 256 9.7 14.5 0.00 0.00 0.00 44 1009.7
20170528213502 27 261 8.0 20.9 0.00 0.00 0.00 44 1009.6
20170528213203 27 254 9.7 20.9 0.00 0.00 0.00 44 1009.7
20170528213015 27 247 3.2 9.7 0.00 0.00 0.00 44 1009.7
20170528212900 27 247 3.2 9.7 0.00 0.00 0.00 44 1009.7
20170528212559 27 238 4.8 20.9 0.00 0.00 0.00 44 1009.8
20170528212351 27 252 12.9 20.9 0.00 0.00 0.00 44 1009.7
20170528212258 27 252 12.9 20.9 0.00 0.00 0.00 44 1009.7
20170528211958 27 247 6.4 14.5 0.00 0.00 0.00 44 1009.7
20170528211801 27 272 6.4 19.3 0.00 0.00 0.00 44 1009.8
20170528211656 27 272 6.4 19.3 0.00 0.00 0.00 44 1009.8
20170528211537 27 256 11.3 19.3 0.00 0.00 0.00 44 1009.8
20170528211354 27 256 11.3 19.3 0.00 0.00 0.00 44 1009.8
20170528211146 27 257 6.4 16.1 0.00 0.00 0.00 44 1009.9
20170528211053 27 257 6.4 16.1 0.00 0.00 0.00 44 1009.9
20170528210932 27 247 8.0 14.5 0.00 0.00 0.00 44 1009.8
20170528210752 27 247 8.0 14.5 0.00 0.00 0.00 44 1009.8
20170528210549 27 225 6.4 12.9 0.00 0.00 0.00 44 1009.9
20170528210451 27 225 6.4 12.9 0.00 0.00 0.00 44 1009.9
20170528205549 27 272 19.3 19.3 0.00 0.00 0.00 44 1009.8
20170528205247 27 252 8.0 14.5 0.00 0.00 0.00 44 1009.8
20170528204644 27 252 4.8 14.5 0.00 0.00 0.00 44 1009.9
20170528204343 27 256 9.7 12.9 0.00 0.00 0.00 44 1009.9
20170528204150 27 247 9.7 16.1 0.00 0.00 0.00 44 1009.9
20170528204042 27 247 9.7 16.1 0.00 0.00 0.00 44 1009.9
20170528203836 27 270 12.9 16.1 0.00 0.00 0.00 44 1009.9
20170528203741 27 270 12.9 16.1 0.00 0.00 0.00 44 1009.9
20170528203616 27 247 6.4 12.9 0.00 0.00 0.00 44 1009.8
20170528203440 27 247 6.4 12.9 0.00 0.00 0.00 44 1009.8
20170528203244 27 254 4.8 12.9 0.00 0.00 0.00 45 1010.1
20170528203139 27 254 4.8 12.9 0.00 0.00 0.00 45 1010.1
20170528202941 27 230 4.8 6.4 0.00 0.00 0.00 45 1010.0
20170528202838 27 230 4.8 6.4 0.00 0.00 0.00 45 1010.0
20170528202725 27 249 4.8 16.1 0.00 0.00 0.00 45 1009.9
20170528202537 27 249 4.8 16.1 0.00 0.00 0.00 45 1009.9
20170528202352 27 261 4.8 16.1 0.00 0.00 0.00 45 1009.9
20170528202236 27 261 4.8 16.1 0.00 0.00 0.00 45 1009.9
20170528201936 27 235 4.8 11.3 0.00 0.00 0.00 44 1010.2
20170528201734 27 240 6.4 17.7 0.00 0.00 0.00 44 1010.3
20170528201633 27 240 6.4 17.7 0.00 0.00 0.00 44 1010.3
20170528201434 27 267 14.5 14.5 0.00 0.00 0.00 44 1010.1
20170528201332 27 267 14.5 14.5 0.00 0.00 0.00 44 1010.1
20170528201144 27 261 9.7 11.3 0.00 0.00 0.00 44 1010.2
20170528201031 27 261 9.7 11.3 0.00 0.00 0.00 44 1010.2
20170528200730 27 240 4.8 12.9 0.00 0.00 0.00 44 1010.2
20170528200429 27 270 4.8 14.5 0.00 0.00 0.00 45 1010.3
20170528200236 27 272 11.3 14.5 0.00 0.00 0.00 44 1010.4
20170528200130 27 272 11.3 14.5 0.00 0.00 0.00 44 1010.4
20170528195227 27 254 8.0 8.0 0.00 0.00 0.00 45 1010.3
20170528195108 27 238 6.4 17.7 0.00 0.00 0.00 44 1010.2
20170528194924 27 238 6.4 17.7 0.00 0.00 0.00 44 1010.2
20170528194751 27 270 12.9 12.9 0.00 0.00 0.00 44 1010.3
20170528194622 27 270 12.9 12.9 0.00 0.00 0.00 44 1010.3
20170528194433 27 247 8.0 16.1 0.00 0.00 0.00 44 1010.4
20170528194321 27 247 8.0 16.1 0.00 0.00 0.00 44 1010.4
20170528193719 27 265 11.3 11.3 0.00 0.00 0.00 44 1010.4
20170528193534 27 267 11.3 11.3 0.00 0.00 0.00 45 1010.4
20170528193418 27 267 11.3 11.3 0.00 0.00 0.00 45 1010.4
20170528192655 27 267 12.9 17.7 0.00 0.00 0.00 44 1010.3
20170528192515 27 267 12.9 17.7 0.00 0.00 0.00 44 1010.3
20170528192342 27 265 14.5 14.5 0.00 0.00 0.00 44 1010.3
20170528192214 27 265 14.5 14.5 0.00 0.00 0.00 44 1010.3
20170528192033 27 265 4.8 12.9 0.00 0.00 0.00 44 1010.3
20170528191913 27 265 4.8 12.9 0.00 0.00 0.00 44 1010.3
20170528191312 27 267 3.2 17.7 0.00 0.00 0.00 44 1010.3
20170528191147 27 267 9.7 17.7 0.00 0.00 0.00 44 1010.3
20170528191009 27 267 9.7 17.7 0.00 0.00 0.00 44 1010.3
20170528190833 27 263 6.4 11.3 0.00 0.00 0.00 44 1010.2
20170528190708 27 263 6.4 11.3 0.00 0.00 0.00 44 1010.2
20170528190534 27 234 1.6 9.7 0.00 0.00 0.00 45 1010.4
20170528190407 27 234 1.6 9.7 0.00 0.00 0.00 45 1010.4
20170528190254 27 267 6.4 8.0 0.00 0.00 0.00 45 1010.2
20170528190106 27 267 6.4 8.0 0.00 0.00 0.00 45 1010.2
20170528185805 26 261 6.4 12.9 0.00 0.00 0.00 44 1010.3
20170528185504 26 272 6.4 12.9 0.00 0.00 0.00 44 1010.2
20170528185204 26 250 8.0 9.7 0.00 0.00 0.00 46 1010.3
20170528184914 26 227 1.6 8.0 0.00 0.00 0.00 45 1010.3
20170528184903 26 256 9.7 9.7 0.00 0.00 0.00 45 1010.3
20170528184600 26 227 1.6 8.0 0.00 0.00 0.00 45 1010.3
20170528184259 26 238 1.6 16.1 0.00 0.00 0.00 44 1010.3
20170528183908 26 242 0.0 9.7 0.00 0.00 0.00 44 1010.3
20170528183657 26 242 0.0 9.7 0.00 0.00 0.00 44 1010.3
20170528183523 26 270 9.7 12.9 0.00 0.00 0.00 44 1010.3
20170528183356 26 270 9.7 12.9 0.00 0.00 0.00 44 1010.3
20170528183231 26 254 6.4 14.5 0.00 0.00 0.00 44 1010.4
20170528183055 26 254 6.4 14.5 0.00 0.00 0.00 44 1010.4
20170528182802 27 222 4.8 11.3 0.00 0.00 0.00 45 1010.4
20170528182756 27 245 0.0 12.9 0.00 0.00 0.00 45 1010.5
20170528182454 27 222 4.8 11.3 0.00 0.00 0.00 45 1010.4
20170528182153 27 261 4.8 9.7 0.00 0.00 0.00 45 1010.4
20170528181551 27 249 4.8 4.8 0.00 0.00 0.00 46 1010.6
20170528181352 26 256 4.8 11.3 0.00 0.00 0.00 46 1010.5
20170528181248 26 256 4.8 11.3 0.00 0.00 0.00 46 1010.5
20170528181123 26 245 4.8 4.8 0.00 0.00 0.00 47 1010.5
20170528180947 26 245 4.8 4.8 0.00 0.00 0.00 47 1010.5
20170528180812 26 234 0.0 8.0 0.00 0.00 0.00 47 1010.5
20170528180647 26 234 0.0 8.0 0.00 0.00 0.00 47 1010.5
20170528180503 26 252 4.8 8.0 0.00 0.00 0.00 47 1010.5
20170528180345 26 252 4.8 8.0 0.00 0.00 0.00 47 1010.5
20170528180212 26 236 3.2 4.8 0.00 0.00 0.00 47 1010.5
20170528180044 26 236 3.2 4.8 0.00 0.00 0.00 47 1010.5
20170528175921 26 180 4.8 9.7 0.00 0.00 0.00 48 1010.4
20170528175743 26 180 4.8 9.7 0.00 0.00 0.00 48 1010.4
20170528175559 26 270 6.4 9.7 0.00 0.00 0.00 48 1010.5
20170528175442 26 270 6.4 9.7 0.00 0.00 0.00 48 1010.5
20170528175300 25 247 6.4 6.4 0.00 0.00 0.00 49 1010.5
20170528175141 25 247 6.4 6.4 0.00 0.00 0.00 49 1010.5
20170528174653 25 270 8.0 11.3 0.00 0.00 0.00 50 1010.6
20170528174540 25 270 8.0 11.3 0.00 0.00 0.00 50 1010.6
20170528174239 25 254 0.0 9.7 0.00 0.00 0.00 50 1010.6
20170528174102 25 285 3.2 8.0 0.00 0.00 0.00 50 1010.6
20170528173936 25 285 3.2 8.0 0.00 0.00 0.00 50 1010.6
20170528173755 24 270 4.8 8.0 0.00 0.00 0.00 51 1010.7
20170528173635 24 270 4.8 8.0 0.00 0.00 0.00 51 1010.7
20170528173450 24 157 1.6 9.7 0.00 0.00 0.00 51 1010.6
20170528173334 24 157 1.6 9.7 0.00 0.00 0.00 51 1010.6
20170528173131 24 261 6.4 14.5 0.00 0.00 0.00 50 1010.5
20170528173034 24 261 6.4 14.5 0.00 0.00 0.00 50 1010.5
20170528172856 24 270 8.0 14.5 0.00 0.00 0.00 51 1010.7
20170528172736 24 270 8.0 14.5 0.00 0.00 0.00 51 1010.7
20170528171937 24 261 8.0 11.3 0.00 0.00 0.00 52 1010.7
20170528171828 24 261 8.0 11.3 0.00 0.00 0.00 52 1010.7
20170528171649 24 238 4.8 9.7 0.00 0.00 0.00 52 1010.6
20170528171527 24 238 4.8 9.7 0.00 0.00 0.00 52 1010.6
20170528171330 24 258 6.4 12.9 0.00 0.00 0.00 51 1010.5
20170528171226 24 258 6.4 12.9 0.00 0.00 0.00 51 1010.5
20170528171047 24 249 4.8 9.7 0.00 0.00 0.00 53 1010.8
20170528170925 24 249 4.8 9.7 0.00 0.00 0.00 53 1010.8
20170528170624 24 283 8.0 9.7 0.00 0.00 0.00 53 1010.7
20170528170451 24 262 1.6 11.3 0.00 0.00 0.00 53 1010.5
20170528170324 24 262 1.6 11.3 0.00 0.00 0.00 53 1010.5
20170528170133 24 254 4.8 11.3 0.00 0.00 0.00 54 1010.5
20170528170023 24 254 4.8 11.3 0.00 0.00 0.00 54 1010.5
20170528165853 23 236 1.6 8.0 0.00 0.00 0.00 54 1010.7
20170528165722 23 236 1.6 8.0 0.00 0.00 0.00 54 1010.7
20170528165555 23 270 4.8 9.7 0.00 0.00 0.00 55 1010.7
20170528165420 23 270 4.8 9.7 0.00 0.00 0.00 55 1010.7
20170528164818 23 270 1.6 6.4 0.00 0.00 0.00 55 1010.9
20170528164647 23 238 1.6 6.4 0.00 0.00 0.00 55 1010.9
20170528164516 23 238 1.6 6.4 0.00 0.00 0.00 55 1010.9
20170528163915 22 252 4.8 11.3 0.00 0.00 0.00 56 1010.8
20170528163722 22 310 6.4 11.3 0.00 0.00 0.00 55 1010.9
20170528163613 22 310 6.4 11.3 0.00 0.00 0.00 55 1010.9
20170528163428 22 272 6.4 11.3 0.00 0.00 0.00 56 1010.9
20170528163312 22 272 6.4 11.3 0.00 0.00 0.00 56 1010.9
20170528162902 23 272 8.0 11.3 0.00 0.00 0.00 56 1010.9
20170528162711 23 272 8.0 11.3 0.00 0.00 0.00 56 1010.9
20170528162109 23 249 3.2 4.8 0.00 0.00 0.00 58 1011.0
20170528161505 22 247 4.8 4.8 0.00 0.00 0.00 58 1010.9
20170528161314 22 265 3.2 9.7 0.00 0.00 0.00 58 1011.0
20170528161204 22 265 3.2 9.7 0.00 0.00 0.00 58 1011.0
20170528161032 22 249 4.8 6.4 0.00 0.00 0.00 58 1010.8
20170528160903 22 249 4.8 6.4 0.00 0.00 0.00 58 1010.8
20170528160724 22 249 3.2 9.7 0.00 0.00 0.00 58 1010.8
20170528160603 22 249 3.2 9.7 0.00 0.00 0.00 58 1010.8
20170528160412 22 270 9.7 9.7 0.00 0.00 0.00 59 1010.8
20170528160302 22 270 9.7 9.7 0.00 0.00 0.00 59 1010.8
20170528160125 22 247 1.6 8.0 0.00 0.00 0.00 60 1010.9
20170528160002 22 247 1.6 8.0 0.00 0.00 0.00 60 1010.9
20170528155518 22 231 0.0 9.7 0.00 0.00 0.00 61 1010.9
20170528155358 22 231 0.0 9.7 0.00 0.00 0.00 61 1010.9
20170528155208 22 267 8.0 9.7 0.00 0.00 0.00 61 1010.8
20170528155056 22 267 8.0 9.7 0.00 0.00 0.00 61 1010.8
20170528154756 22 234 0.0 4.8 0.00 0.00 0.00 62 1010.9
20170528154611 22 270 3.2 4.8 0.00 0.00 0.00 63 1011.1
20170528154455 22 270 3.2 4.8 0.00 0.00 0.00 63 1011.1
20170528154323 22 243 1.6 4.8 0.00 0.00 0.00 63 1011.0
20170528154155 22 243 1.6 4.8 0.00 0.00 0.00 63 1011.0
20170528154027 22 225 0.0 3.2 0.00 0.00 0.00 65 1010.9
20170528153853 22 225 0.0 3.2 0.00 0.00 0.00 65 1010.9
20170528153404 21 279 6.4 6.4 0.00 0.00 0.00 64 1010.6
20170528153250 21 279 6.4 6.4 0.00 0.00 0.00 64 1010.6
20170528153123 21 292 3.2 4.8 0.00 0.00 0.00 65 1010.7
20170528152949 21 292 3.2 4.8 0.00 0.00 0.00 65 1010.7
20170528152648 21 240 0.0 3.2 0.00 0.00 0.00 68 1010.6
20170528152500 21 225 0.0 3.2 0.00 0.00 0.00 68 1010.7
20170528152346 21 225 0.0 3.2 0.00 0.00 0.00 68 1010.7
20170528152155 20 225 0.0 0.0 0.00 0.00 0.00 70 1010.8
20170528152045 20 225 0.0 0.0 0.00 0.00 0.00 70 1010.8
20170528151902 20 225 0.0 3.2 0.00 0.00 0.00 70 1010.8
20170528151745 20 225 0.0 3.2 0.00 0.00 0.00 70 1010.8
20170528151617 20 182 3.2 3.2 0.00 0.00 0.00 71 1010.8
20170528151444 20 182 3.2 3.2 0.00 0.00 0.00 71 1010.8
20170528151249 19 180 1.6 3.2 0.00 0.00 0.00 72 1010.8
20170528151143 19 180 1.6 3.2 0.00 0.00 0.00 72 1010.8
20170528151009 19 148 1.6 4.8 0.00 0.00 0.00 73 1010.8
20170528150842 19 148 1.6 4.8 0.00 0.00 0.00 73 1010.8
20170528150647 18 195 1.6 3.2 0.00 0.00 0.00 74 1010.6
20170528150540 18 195 1.6 3.2 0.00 0.00 0.00 74 1010.6
20170528150241 18 225 0.0 3.2 0.00 0.00 0.00 75 1010.7
20170528150117 18 225 0.0 3.2 0.00 0.00 0.00 76 1010.6
20170528145938 18 225 0.0 3.2 0.00 0.00 0.00 76 1010.6
20170528145636 17 45 0.0 3.2 0.00 0.00 0.00 76 1010.6
20170528145508 17 132 1.6 3.2 0.00 0.00 0.00 77 1010.6
20170528145335 17 132 1.6 3.2 0.00 0.00 0.00 77 1010.6
20170528145200 17 157 0.0 3.2 0.00 0.00 0.00 79 1010.7
20170528145035 17 157 0.0 3.2 0.00 0.00 0.00 79 1010.7
20170528144555 16 135 0.0 3.2 0.00 0.00 0.00 79 1010.5
20170528144432 16 135 0.0 3.2 0.00 0.00 0.00 79 1010.5
20170528144242 16 132 0.0 3.2 0.00 0.00 0.00 80 1010.4
20170528144131 16 132 0.0 3.2 0.00 0.00 0.00 80 1010.4
20170528143921 15 126 1.6 3.2 0.00 0.00 0.00 81 1010.5
20170528143830 15 126 1.6 3.2 0.00 0.00 0.00 81 1010.5
20170528143529 15 141 1.6 3.2 0.00 0.00 0.00 82 1010.6
20170528143228 15 45 0.0 4.8 0.00 0.00 0.00 82 1010.5
20170528143036 15 90 3.2 4.8 0.00 0.00 0.00 83 1010.5
20170528142928 15 90 3.2 4.8 0.00 0.00 0.00 83 1010.5
20170528142812 14 92 4.8 4.8 0.00 0.00 0.00 83 1010.6
20170528142626 14 92 4.8 4.8 0.00 0.00 0.00 83 1010.6
20170528142138 13 105 1.6 1.6 0.00 0.00 0.00 85 1010.7
20170528142023 13 105 1.6 1.6 0.00 0.00 0.00 85 1010.7
20170528141914 13 90 1.6 3.2 0.00 0.00 0.00 85 1010.7
20170528141723 13 90 1.6 3.2 0.00 0.00 0.00 85 1010.7
20170528141423 13 130 3.2 3.2 0.00 0.00 0.00 85 1010.5
20170528141240 13 135 1.6 3.2 0.00 0.00 0.00 86 1010.3
20170528141120 13 135 1.6 3.2 0.00 0.00 0.00 86 1010.3
20170528140947 13 180 0.0 1.6 0.00 0.00 0.00 86 1010.4
20170528140819 13 180 0.0 1.6 0.00 0.00 0.00 86 1010.4
20170528140518 12 90 1.6 1.6 0.00 0.00 0.00 87 1010.2
20170528140324 12 180 0.0 1.6 0.00 0.00 0.00 88 1010.3
20170528140217 12 180 0.0 1.6 0.00 0.00 0.00 88 1010.3
20170528135610 12 135 0.0 3.2 0.00 0.00 0.00 89 1010.5
20170528135008 11 180 0.0 1.6 0.00 0.00 0.00 89 1010.2
20170528134524 11 90 1.6 1.6 0.00 0.00 0.00 90 1010.3
20170528134405 11 90 1.6 1.6 0.00 0.00 0.00 90 1010.3
20170528134241 10 121 1.6 1.6 0.00 0.00 0.00 90 1010.2
20170528134107 10 121 1.6 1.6 0.00 0.00 0.00 90 1010.2
20170528134105 10 121 1.6 1.6 0.00 0.00 0.00 90 1010.2
20170528133803 10 135 0.0 3.2 0.00 0.00 0.00 90 1010.1
20170528133556 10 135 1.6 3.2 0.00 0.00 0.00 90 1010.2
20170528133503 10 135 1.6 3.2 0.00 0.00 0.00 90 1010.2
20170528133202 10 90 1.6 3.2 0.00 0.00 0.00 91 1010.1
20170528132901 10 105 1.6 4.8 0.00 0.00 0.00 91 1010.0
20170528132859 10 105 1.6 4.8 0.00 0.00 0.00 91 1010.0
20170528132558 10 135 1.6 4.8 0.00 0.00 0.00 91 1010.0
20170528132258 9 135 1.6 1.6 0.00 0.00 0.00 91 1010.0
20170528131956 9 177 0.0 3.2 0.00 0.00 0.00 91 1010.0
20170528131833 9 132 0.0 3.2 0.00 0.00 0.00 91 1009.8
20170528131655 9 132 0.0 3.2 0.00 0.00 0.00 91 1009.8
20170528131505 9 90 1.6 3.2 0.00 0.00 0.00 90 1009.8
20170528131356 9 90 1.6 3.2 0.00 0.00 0.00 90 1009.8
20170528131354 9 90 1.6 3.2 0.00 0.00 0.00 90 1009.8
20170528131053 8 90 0.0 1.6 0.00 0.00 0.00 91 1009.8
20170528130753 8 90 0.0 3.2 0.00 0.00 0.00 91 1009.9
20170528130547 8 135 0.0 3.2 0.00 0.00 0.00 91 1009.9
20170528130451 8 135 0.0 3.2 0.00 0.00 0.00 91 1009.9
20170528130308 8 135 0.0 1.6 0.00 0.00 0.00 89 1009.9
20170528130149 8 135 0.0 1.6 0.00 0.00 0.00 89 1009.9
20170528130018 8 180 0.0 0.0 0.00 0.00 0.00 90 1009.8
20170528125848 8 180 0.0 0.0 0.00 0.00 0.00 90 1009.8
20170528125724 8 180 0.0 0.0 0.00 0.00 0.00 90 1009.9
20170528125548 8 180 0.0 0.0 0.00 0.00 0.00 90 1009.9
20170528125400 8 180 0.0 0.0 0.00 0.00 0.00 90 1009.8
20170528125246 8 180 0.0 0.0 0.00 0.00 0.00 90 1009.8
20170528125117 8 90 0.0 3.2 0.00 0.00 0.00 90 1009.7
20170528124945 8 90 0.0 3.2 0.00 0.00 0.00 90 1009.7
20170528124458 8 45 1.6 3.2 0.00 0.00 0.00 90 1009.6
20170528124343 8 45 1.6 3.2 0.00 0.00 0.00 90 1009.6
20170528124043 8 45 0.0 0.0 0.00 0.00 0.00 89 1009.6
20170528123741 8 45 0.0 1.6 0.00 0.00 0.00 89 1009.5
20170528123529 9 45 0.0 1.6 0.00 0.00 0.00 88 1009.5
20170528123441 9 45 0.0 1.6 0.00 0.00 0.00 88 1009.5
20170528123301 9 45 0.0 1.6 0.00 0.00 0.00 89 1009.5
20170528123138 9 45 0.0 1.6 0.00 0.00 0.00 89 1009.5
20170528123001 9 135 0.0 3.2 0.00 0.00 0.00 89 1009.5
20170528122837 9 135 0.0 3.2 0.00 0.00 0.00 89 1009.5
20170528122715 9 270 0.0 3.2 0.00 0.00 0.00 90 1009.6
20170528122538 9 270 0.0 3.2 0.00 0.00 0.00 90 1009.6
20170528122536 9 270 0.0 3.2 0.00 0.00 0.00 90 1009.6
20170528122412 9 99 1.6 1.6 0.00 0.00 0.00 90 1009.4
20170528122237 9 99 1.6 1.6 0.00 0.00 0.00 90 1009.4
20170528122235 9 99 1.6 1.6 0.00 0.00 0.00 90 1009.4
20170528121934 9 135 0.0 1.6 0.00 0.00 0.00 89 1009.4
20170528121814 9 135 0.0 4.8 0.00 0.00 0.00 89 1009.4
20170528121633 9 135 0.0 4.8 0.00 0.00 0.00 89 1009.4
20170528121505 9 99 3.2 6.4 0.00 0.00 0.00 90 1009.4
20170528121333 9 99 3.2 6.4 0.00 0.00 0.00 90 1009.4
20170528121201 9 90 6.4 6.4 0.00 0.00 0.00 90 1009.3
20170528121031 9 90 6.4 6.4 0.00 0.00 0.00 90 1009.3
20170528120732 9 90 3.2 4.8 0.00 0.00 0.00 90 1009.3
20170528120429 9 114 1.6 4.8 0.00 0.00 0.00 90 1009.3
20170528120128 9 90 3.2 6.4 0.00 0.00 0.00 90 1009.4
20170528120003 9 90 3.2 6.4 0.00 0.00 0.00 90 1009.3
20170528115826 9 90 3.2 6.4 0.00 0.00 0.00 90 1009.3
20170528115722 9 92 4.8 4.8 0.00 0.00 0.00 90 1009.3
20170528115527 9 92 4.8 4.8 0.00 0.00 0.00 90 1009.3
20170528115402 9 90 3.2 4.8 0.00 0.00 0.00 90 1009.4
20170528115224 9 90 3.2 4.8 0.00 0.00 0.00 90 1009.4
20170528114759 9 90 3.2 6.4 0.00 0.00 0.00 91 1009.4
20170528114622 9 90 3.2 6.4 0.00 0.00 0.00 91 1009.4
20170528114441 9 90 6.4 6.4 0.00 0.00 0.00 90 1009.5
20170528114321 9 90 6.4 6.4 0.00 0.00 0.00 90 1009.5
20170528114214 9 90 4.8 6.4 0.00 0.00 0.00 91 1009.3
20170528114020 9 90 4.8 6.4 0.00 0.00 0.00 91 1009.3
20170528113951 9 90 3.2 4.8 0.00 0.00 0.00 91 1009.4
20170528113719 9 90 3.2 4.8 0.00 0.00 0.00 91 1009.4
20170528113417 9 90 3.2 3.2 0.00 0.00 0.00 91 1009.3
20170528113118 9 119 1.6 4.8 0.00 0.00 0.00 91 1009.4
20170528112815 9 135 1.6 4.8 0.00 0.00 0.00 90 1009.3
20170528112514 9 90 1.6 1.6 0.00 0.00 0.00 91 1009.3
20170528112353 9 90 1.6 3.2 0.00 0.00 0.00 90 1009.2
20170528112213 9 90 1.6 3.2 0.00 0.00 0.00 90 1009.2
20170528111912 9 130 1.6 3.2 0.00 0.00 0.00 90 1009.3
20170528111720 9 90 1.6 4.8 0.00 0.00 0.00 90 1009.3
20170528111612 9 90 1.6 4.8 0.00 0.00 0.00 90 1009.3
20170528111311 9 101 1.6 4.8 0.00 0.00 0.00 91 1009.3
20170528111140 9 87 3.2 4.8 0.00 0.00 0.00 90 1009.4
20170528111009 9 87 3.2 4.8 0.00 0.00 0.00 90 1009.4
20170528110707 9 135 1.6 3.2 0.00 0.00 0.00 90 1009.3
20170528110408 9 180 0.0 3.2 0.00 0.00 0.00 90 1009.3
20170528110406 9 180 0.0 3.2 0.00 0.00 0.00 90 1009.3
20170528110232 9 45 1.6 3.2 0.00 0.00 0.00 91 1009.4
20170528110106 9 45 1.6 3.2 0.00 0.00 0.00 91 1009.4
20170528105943 9 65 1.6 1.6 0.00 0.00 0.00 91 1009.3
20170528105805 9 65 1.6 1.6 0.00 0.00 0.00 91 1009.3
20170528105205 8 45 0.0 1.6 0.00 0.00 0.00 90 1009.3
20170528105023 8 135 0.0 3.2 0.00 0.00 0.00 90 1009.4
20170528104901 8 135 0.0 3.2 0.00 0.00 0.00 90 1009.4
20170528104716 8 90 1.6 3.2 0.00 0.00 0.00 90 1009.5
20170528104602 8 90 1.6 3.2 0.00 0.00 0.00 90 1009.5
20170528104600 8 90 1.6 3.2 0.00 0.00 0.00 90 1009.5
20170528104426 8 135 1.6 3.2 0.00 0.00 0.00 90 1009.4
20170528104259 8 135 1.6 3.2 0.00 0.00 0.00 90 1009.4
20170528104121 8 130 1.6 3.2 0.00 0.00 0.00 90 1009.6
20170528103958 8 130 1.6 3.2 0.00 0.00 0.00 90 1009.6
20170528103917 8 90 1.6 1.6 0.00 0.00 0.00 90 1009.6
20170528103656 8 90 1.6 1.6 0.00 0.00 0.00 90 1009.6
20170528103222 8 67 1.6 1.6 0.00 0.00 0.00 90 1009.7
20170528103054 8 67 1.6 1.6 0.00 0.00 0.00 90 1009.7
20170528102753 8 67 0.0 1.6 0.00 0.00 0.00 90 1009.6
20170528102607 8 67 1.6 1.6 0.00 0.00 0.00 89 1009.8
20170528102452 8 67 1.6 1.6 0.00 0.00 0.00 89 1009.8
20170528102151 8 45 0.0 1.6 0.00 0.00 0.00 90 1009.8
20170528102058 8 45 1.6 1.6 0.00 0.00 0.00 90 1009.7
20170528101850 8 45 1.6 1.6 0.00 0.00 0.00 90 1009.7
20170528101712 8 45 0.0 1.6 0.00 0.00 0.00 89 1009.8
20170528101549 8 45 0.0 1.6 0.00 0.00 0.00 89 1009.8
20170528101445 8 76 1.6 1.6 0.00 0.00 0.00 89 1009.9
20170528101248 8 76 1.6 1.6 0.00 0.00 0.00 89 1009.9
20170528101124 8 218 0.0 0.0 0.00 0.00 0.00 89 1009.8
20170528100946 8 218 0.0 0.0 0.00 0.00 0.00 89 1009.8
20170528100829 8 0 0.0 1.6 0.00 0.00 0.00 89 1010.0
20170528100645 8 0 0.0 1.6 0.00 0.00 0.00 89 1010.0
20170528100245 8 112 0.0 1.6 0.00 0.00 0.00 88 1009.8
20170528100044 8 112 0.0 1.6 0.00 0.00 0.00 88 1009.8
20170528095956 8 112 0.0 1.6 0.00 0.00 0.00 88 1009.9
20170528095742 8 112 0.0 1.6 0.00 0.00 0.00 88 1009.9
20170528095615 8 112 0.0 0.0 0.00 0.00 0.00 88 1010.0
20170528095441 8 112 0.0 0.0 0.00 0.00 0.00 88 1010.0
20170528095252 8 112 0.0 1.6 0.00 0.00 0.00 88 1010.1
20170528095140 8 112 0.0 1.6 0.00 0.00 0.00 88 1010.1
20170528094734 8 135 0.0 0.0 0.00 0.00 0.00 88 1010.1
20170528094538 8 135 0.0 0.0 0.00 0.00 0.00 88 1010.1
20170528093937 8 135 0.0 0.0 0.00 0.00 0.00 88 1010.0
20170528093459 9 90 0.0 0.0 0.00 0.00 0.00 88 1010.1
20170528093333 9 90 0.0 0.0 0.00 0.00 0.00 88 1010.1
20170528093220 9 90 0.0 1.6 0.00 0.00 0.00 88 1010.1
20170528093032 9 90 0.0 1.6 0.00 0.00 0.00 88 1010.1
20170528092939 9 90 1.6 1.6 0.00 0.00 0.00 88 1010.0
20170528092731 9 90 1.6 1.6 0.00 0.00 0.00 88 1010.0
20170528092540 9 90 0.0 0.0 0.00 0.00 0.00 88 1010.1
20170528092430 9 90 0.0 0.0 0.00 0.00 0.00 88 1010.1
20170528092242 9 225 0.0 0.0 0.00 0.00 0.00 88 1010.1
20170528092129 9 225 0.0 0.0 0.00 0.00 0.00 88 1010.1
20170528092010 9 225 0.0 0.0 0.00 0.00 0.00 88 1010.1
20170528091828 9 225 0.0 0.0 0.00 0.00 0.00 88 1010.1
20170528091715 9 225 0.0 0.0 0.00 0.00 0.00 88 1010.0
20170528091527 9 225 0.0 0.0 0.00 0.00 0.00 88 1010.0
20170528091349 9 225 0.0 0.0 0.00 0.00 0.00 88 1010.2
20170528091226 9 225 0.0 0.0 0.00 0.00 0.00 88 1010.2
20170528091108 9 225 0.0 0.0 0.00 0.00 0.00 88 1010.2
20170528090924 9 225 0.0 0.0 0.00 0.00 0.00 88 1010.2
20170528090827 8 225 0.0 0.0 0.00 0.00 0.00 88 1010.2
20170528090623 8 225 0.0 0.0 0.00 0.00 0.00 88 1010.2
20170528090500 8 225 0.0 0.0 0.00 0.00 0.00 88 1010.2
20170528090322 8 225 0.0 0.0 0.00 0.00 0.00 88 1010.2
20170528090201 8 225 0.0 0.0 0.00 0.00 0.00 88 1010.2
20170528090021 8 225 0.0 0.0 0.00 0.00 0.00 88 1010.2
20170528085926 8 180 0.0 0.0 0.00 0.00 0.00 88 1010.2
20170528085720 8 180 0.0 0.0 0.00 0.00 0.00 88 1010.2
20170528085610 9 245 0.0 1.6 0.00 0.00 0.00 88 1010.3
20170528085419 9 245 0.0 1.6 0.00 0.00 0.00 88 1010.3
20170528085237 8 225 0.0 0.0 0.00 0.00 0.00 87 1010.1
20170528085118 8 225 0.0 0.0 0.00 0.00 0.00 87 1010.1
20170528084818 9 225 0.0 0.0 0.00 0.00 0.00 88 1010.3
20170528084707 9 45 0.0 0.0 0.00 0.00 0.00 88 1010.3
20170528084516 9 45 0.0 0.0 0.00 0.00 0.00 88 1010.3
20170528084355 9 45 0.0 1.6 0.00 0.00 0.00 87 1010.3
20170528084214 9 45 0.0 1.6 0.00 0.00 0.00 87 1010.3
20170528084058 9 42 1.6 3.2 0.00 0.00 0.00 87 1010.5
20170528083913 9 42 1.6 3.2 0.00 0.00 0.00 87 1010.5
20170528083614 8 90 0.0 0.0 0.00 0.00 0.00 87 1010.3
20170528083431 9 45 0.0 1.6 0.00 0.00 0.00 87 1010.5
20170528083311 9 45 0.0 1.6 0.00 0.00 0.00 87 1010.5
20170528083157 9 75 1.6 1.6 0.00 0.00 0.00 86 1010.5
20170528083010 9 75 1.6 1.6 0.00 0.00 0.00 86 1010.5
20170528082909 9 45 0.0 1.6 0.00 0.00 0.00 86 1010.5
20170528082709 9 45 0.0 1.6 0.00 0.00 0.00 86 1010.5
20170528082229 9 4 0.0 1.6 0.00 0.00 0.00 87 1010.5
20170528082107 9 4 0.0 1.6 0.00 0.00 0.00 87 1010.5
20170528081935 9 45 1.6 1.6 0.00 0.00 0.00 86 1010.6
20170528081807 9 45 1.6 1.6 0.00 0.00 0.00 86 1010.6
20170528081619 9 301 0.0 1.6 0.00 0.00 0.00 86 1010.6
20170528081504 9 301 0.0 1.6 0.00 0.00 0.00 86 1010.6
20170528081300 9 20 1.6 1.6 0.00 0.00 0.00 85 1010.6
20170528081203 9 20 1.6 1.6 0.00 0.00 0.00 85 1010.6
20170528081028 9 45 0.0 0.0 0.00 0.00 0.00 85 1010.6
20170528080903 9 45 0.0 0.0 0.00 0.00 0.00 85 1010.6
20170528080718 9 45 0.0 1.6 0.00 0.00 0.00 85 1010.6
20170528080601 9 45 0.0 1.6 0.00 0.00 0.00 85 1010.6
20170528080425 9 182 0.0 1.6 0.00 0.00 0.00 85 1010.7
20170528080300 9 182 0.0 1.6 0.00 0.00 0.00 85 1010.7
20170528080001 9 135 0.0 1.6 0.00 0.00 0.00 85 1010.6
20170528075222 9 225 0.0 0.0 0.00 0.00 0.00 84 1010.8
20170528075056 9 225 0.0 0.0 0.00 0.00 0.00 84 1010.8
20170528074920 9 225 0.0 0.0 0.00 0.00 0.00 84 1010.8
20170528074755 9 225 0.0 0.0 0.00 0.00 0.00 84 1010.8
20170528074603 9 225 0.0 0.0 0.00 0.00 0.00 84 1010.9
20170528074453 9 225 0.0 0.0 0.00 0.00 0.00 84 1010.9
20170528074405 9 225 0.0 0.0 0.00 0.00 0.00 84 1010.9
20170528074152 9 225 0.0 0.0 0.00 0.00 0.00 84 1010.9
20170528073708 10 225 0.0 0.0 0.00 0.00 0.00 84 1010.8
20170528073553 10 225 0.0 0.0 0.00 0.00 0.00 84 1010.8
20170528073550 10 225 0.0 0.0 0.00 0.00 0.00 84 1010.8
20170528073416 10 225 0.0 0.0 0.00 0.00 0.00 84 1010.8
20170528073249 10 225 0.0 0.0 0.00 0.00 0.00 84 1010.8
20170528072949 10 270 0.0 0.0 0.00 0.00 0.00 85 1010.8
20170528072831 10 270 0.0 0.0 0.00 0.00 0.00 85 1010.9
20170528072647 10 270 0.0 0.0 0.00 0.00 0.00 85 1010.9
20170528072509 10 270 0.0 0.0 0.00 0.00 0.00 85 1010.9
20170528072346 10 270 0.0 0.0 0.00 0.00 0.00 85 1010.9
20170528072217 10 270 0.0 0.0 0.00 0.00 0.00 86 1011.0
20170528072045 10 270 0.0 0.0 0.00 0.00 0.00 86 1011.0
20170528071944 10 270 0.0 1.6 0.00 0.00 0.00 87 1011.0
20170528071744 10 270 0.0 1.6 0.00 0.00 0.00 87 1011.0
20170528071623 10 270 1.6 3.2 0.00 0.00 0.00 87 1011.0
20170528071442 10 270 1.6 3.2 0.00 0.00 0.00 87 1011.0
20170528071315 10 315 1.6 1.6 0.00 0.00 0.00 85 1011.0
20170528071141 10 315 1.6 1.6 0.00 0.00 0.00 85 1011.0
20170528070842 10 270 1.6 3.2 0.00 0.00 0.00 85 1011.0
20170528070715 10 270 3.2 3.2 0.00 0.00 0.00 86 1011.0
20170528070539 10 270 3.2 3.2 0.00 0.00 0.00 86 1011.0
20170528070240 9 270 1.6 1.6 0.00 0.00 0.00 84 1011.1
20170528065938 10 270 0.0 0.0 0.00 0.00 0.00 83 1011.0
20170528065636 10 270 0.0 0.0 0.00 0.00 0.00 83 1011.0
20170528065449 10 270 0.0 0.0 0.00 0.00 0.00 82 1010.9
20170528065335 10 270 0.0 0.0 0.00 0.00 0.00 82 1010.9
20170528065214 10 270 0.0 0.0 0.00 0.00 0.00 83 1011.0
20170528065034 10 270 0.0 0.0 0.00 0.00 0.00 83 1011.0
20170528065006 10 270 0.0 0.0 0.00 0.00 0.00 83 1011.1
20170528064732 10 270 0.0 0.0 0.00 0.00 0.00 83 1011.1
20170528064558 10 270 0.0 0.0 0.00 0.00 0.00 83 1011.1
20170528064431 10 270 0.0 0.0 0.00 0.00 0.00 83 1011.1
20170528064247 10 270 0.0 0.0 0.00 0.00 0.00 83 1011.1
20170528064130 10 270 0.0 0.0 0.00 0.00 0.00 83 1011.1
20170528064013 10 270 0.0 0.0 0.00 0.00 0.00 83 1011.1
20170528063829 10 270 0.0 0.0 0.00 0.00 0.00 83 1011.1
20170528063339 10 270 1.6 1.6 0.00 0.00 0.00 82 1011.1
20170528063230 10 270 1.6 1.6 0.00 0.00 0.00 82 1011.1
20170528063056 10 270 0.0 0.0 0.00 0.00 0.00 82 1011.2
20170528062926 10 270 0.0 0.0 0.00 0.00 0.00 82 1011.2
20170528062842 10 270 0.0 1.6 0.00 0.00 0.00 82 1011.2
20170528062625 10 270 0.0 1.6 0.00 0.00 0.00 82 1011.2
20170528062459 10 270 1.6 1.6 0.00 0.00 0.00 82 1011.2
20170528062324 10 270 1.6 1.6 0.00 0.00 0.00 82 1011.2
20170528062213 10 270 0.0 0.0 0.00 0.00 0.00 81 1011.2
20170528062022 10 270 0.0 0.0 0.00 0.00 0.00 81 1011.2
20170528061903 10 270 0.0 0.0 0.00 0.00 0.00 82 1011.1
20170528061721 10 270 0.0 0.0 0.00 0.00 0.00 82 1011.1
20170528061609 10 270 0.0 0.0 0.00 0.00 0.00 81 1011.2
20170528061421 10 270 0.0 0.0 0.00 0.00 0.00 81 1011.2
20170528061245 10 270 0.0 0.0 0.00 0.00 0.00 81 1011.3
20170528061119 10 270 0.0 0.0 0.00 0.00 0.00 81 1011.3
20170528060630 10 270 0.0 0.0 0.00 0.00 0.00 81 1011.1
20170528060517 10 270 0.0 0.0 0.00 0.00 0.00 81 1011.1
20170528060257 10 270 0.0 1.6 0.00 0.00 0.00 81 1011.1
20170528060217 10 270 0.0 1.6 0.00 0.00 0.00 81 1011.1
20170528055916 10 225 0.0 0.0 0.00 0.00 0.00 80 1011.2
20170528055739 10 225 0.0 0.0 0.00 0.00 0.00 80 1011.1
20170528055614 10 225 0.0 0.0 0.00 0.00 0.00 80 1011.1
20170528055456 10 225 0.0 0.0 0.00 0.00 0.00 80 1011.2
20170528055312 10 225 0.0 0.0 0.00 0.00 0.00 80 1011.2
20170528054712 11 315 0.0 1.6 0.00 0.00 0.00 80 1011.1
20170528054535 11 315 0.0 1.6 0.00 0.00 0.00 81 1011.1
20170528054409 11 315 0.0 1.6 0.00 0.00 0.00 81 1011.1
20170528054251 11 315 0.0 1.6 0.00 0.00 0.00 80 1011.2
20170528054108 11 315 0.0 1.6 0.00 0.00 0.00 80 1011.2
20170528053937 11 315 0.0 0.0 0.00 0.00 0.00 79 1011.1
20170528053807 11 315 0.0 0.0 0.00 0.00 0.00 79 1011.1
20170528053632 11 225 0.0 0.0 0.00 0.00 0.00 79 1011.1
20170528053506 11 225 0.0 0.0 0.00 0.00 0.00 79 1011.1
20170528053055 11 180 0.0 0.0 0.00 0.00 0.00 80 1011.2
20170528052904 11 180 0.0 0.0 0.00 0.00 0.00 80 1011.2
20170528052811 11 225 0.0 0.0 0.00 0.00 0.00 81 1011.1
20170528052602 11 225 0.0 0.0 0.00 0.00 0.00 81 1011.1
20170528052303 11 22 1.6 3.2 0.00 0.00 0.00 81 1011.2
20170528052146 11 0 1.6 3.2 0.00 0.00 0.00 81 1011.1
20170528052000 11 0 1.6 3.2 0.00 0.00 0.00 81 1011.1
20170528051518 11 4 1.6 1.6 0.00 0.00 0.00 79 1011.1
20170528051358 11 4 1.6 1.6 0.00 0.00 0.00 79 1011.1
20170528051228 11 315 0.0 0.0 0.00 0.00 0.00 79 1011.1
20170528051057 11 315 0.0 0.0 0.00 0.00 0.00 79 1011.1
20170528050958 11 315 0.0 0.0 0.00 0.00 0.00 79 1011.1
20170528050756 11 315 0.0 0.0 0.00 0.00 0.00 79 1011.1
20170528050314 11 45 0.0 1.6 0.00 0.00 0.00 77 1011.4
20170528050155 11 45 0.0 1.6 0.00 0.00 0.00 77 1011.4
20170528045954 11 90 0.0 0.0 0.00 0.00 0.00 77 1011.3
20170528045853 11 90 0.0 0.0 0.00 0.00 0.00 77 1011.3
20170528045411 11 180 0.0 0.0 0.00 0.00 0.00 76 1011.3
20170528045250 11 180 0.0 0.0 0.00 0.00 0.00 76 1011.3
20170528045053 11 225 0.0 0.0 0.00 0.00 0.00 76 1011.3
20170528044949 11 225 0.0 0.0 0.00 0.00 0.00 76 1011.3
20170528044803 11 225 0.0 0.0 0.00 0.00 0.00 76 1011.3
20170528044648 11 225 0.0 0.0 0.00 0.00 0.00 76 1011.3
20170528044451 11 225 0.0 0.0 0.00 0.00 0.00 75 1011.2
20170528044347 11 225 0.0 0.0 0.00 0.00 0.00 75 1011.2
20170528044048 11 225 0.0 0.0 0.00 0.00 0.00 75 1011.2
20170528043923 11 225 0.0 0.0 0.00 0.00 0.00 76 1011.2
20170528043745 11 225 0.0 0.0 0.00 0.00 0.00 76 1011.2
20170528043601 11 270 0.0 0.0 0.00 0.00 0.00 76 1011.2
20170528043444 11 270 0.0 0.0 0.00 0.00 0.00 76 1011.2
20170528043013 12 225 0.0 0.0 0.00 0.00 0.00 75 1011.1
20170528042842 12 225 0.0 0.0 0.00 0.00 0.00 75 1011.1
20170528042818 12 225 0.0 0.0 0.00 0.00 0.00 75 1011.1
20170528042540 12 225 0.0 0.0 0.00 0.00 0.00 75 1011.1
20170528042433 12 225 0.0 0.0 0.00 0.00 0.00 74 1011.1
20170528042239 12 225 0.0 0.0 0.00 0.00 0.00 74 1011.1
20170528042042 12 225 0.0 0.0 0.00 0.00 0.00 73 1011.2
20170528041940 12 225 0.0 0.0 0.00 0.00 0.00 73 1011.2
20170528041750 12 225 0.0 0.0 0.00 0.00 0.00 73 1011.2
20170528041639 12 225 0.0 0.0 0.00 0.00 0.00 73 1011.2
20170528041153 12 213 0.0 0.0 0.00 0.00 0.00 73 1011.2
20170528041036 12 213 0.0 0.0 0.00 0.00 0.00 73 1011.2
20170528040909 12 180 0.0 0.0 0.00 0.00 0.00 72 1011.1
20170528040735 12 180 0.0 0.0 0.00 0.00 0.00 72 1011.1
20170528040434 12 225 0.0 0.0 0.00 0.00 0.00 72 1011.1
20170528040235 12 220 0.0 0.0 0.00 0.00 0.00 72 1011.1
20170528040132 12 220 0.0 0.0 0.00 0.00 0.00 72 1011.1
20170528035948 12 225 0.0 0.0 0.00 0.00 0.00 71 1011.0
20170528035830 12 225 0.0 0.0 0.00 0.00 0.00 71 1011.0
20170528034929 12 225 0.0 0.0 0.00 0.00 0.00 69 1010.9
20170528034627 12 225 0.0 1.6 0.00 0.00 0.00 69 1011.0
20170528034024 13 225 0.0 0.0 0.00 0.00 0.00 68 1011.0
20170528033847 13 225 0.0 0.0 0.00 0.00 0.00 67 1010.9
20170528033723 13 225 0.0 0.0 0.00 0.00 0.00 67 1010.9
20170528033523 13 225 0.0 0.0 0.00 0.00 0.00 66 1010.9
20170528033423 13 225 0.0 0.0 0.00 0.00 0.00 66 1010.9
20170528033237 13 225 0.0 0.0 0.00 0.00 0.00 66 1011.1
20170528033121 13 225 0.0 0.0 0.00 0.00 0.00 66 1011.1
20170528032941 14 225 0.0 0.0 0.00 0.00 0.00 65 1011.1
20170528032819 14 225 0.0 0.0 0.00 0.00 0.00 65 1011.1
20170528032625 14 225 0.0 0.0 0.00 0.00 0.00 65 1011.1
20170528032518 14 225 0.0 0.0 0.00 0.00 0.00 65 1011.1
20170528032329 14 225 0.0 0.0 0.00 0.00 0.00 64 1011.2
20170528032217 14 225 0.0 0.0 0.00 0.00 0.00 64 1011.2
20170528032109 15 225 0.0 0.0 0.00 0.00 0.00 64 1011.1
20170528031916 15 225 0.0 0.0 0.00 0.00 0.00 64 1011.1
20170528031750 15 225 0.0 0.0 0.00 0.00 0.00 64 1011.1
20170528031615 15 225 0.0 0.0 0.00 0.00 0.00 64 1011.1
20170528031420 15 234 1.6 1.6 0.00 0.00 0.00 62 1011.0
20170528031314 15 234 1.6 1.6 0.00 0.00 0.00 62 1011.0
20170528031137 15 252 1.6 3.2 0.00 0.00 0.00 62 1011.1
20170528031013 15 252 1.6 3.2 0.00 0.00 0.00 62 1011.1
20170528030827 16 249 1.6 1.6 0.00 0.00 0.00 61 1011.1
20170528030716 16 249 1.6 1.6 0.00 0.00 0.00 61 1011.1
20170528030413 16 225 0.0 1.6 0.00 0.00 0.00 61 1011.1
20170528025917 16 234 0.0 1.6 0.00 0.00 0.00 60 1011.2
20170528025809 16 234 0.0 1.6 0.00 0.00 0.00 60 1011.2
20170528025609 17 225 0.0 1.6 0.00 0.00 0.00 58 1011.0
20170528025507 17 225 0.0 1.6 0.00 0.00 0.00 58 1011.0
20170528025031 17 225 0.0 1.6 0.00 0.00 0.00 58 1011.3
20170528024905 17 225 0.0 1.6 0.00 0.00 0.00 58 1011.3
20170528024607 17 227 1.6 1.6 0.00 0.00 0.00 58 1011.2
20170528024423 17 225 0.0 1.6 0.00 0.00 0.00 57 1011.1
20170528024303 17 225 0.0 1.6 0.00 0.00 0.00 57 1011.1
20170528024202 18 0 0.0 3.2 0.00 0.00 0.00 57 1011.1
20170528024002 18 0 0.0 3.2 0.00 0.00 0.00 57 1011.1
20170528023406 18 229 0.0 1.6 0.00 0.00 0.00 56 1011.2
20170528023231 18 249 0.0 3.2 0.00 0.00 0.00 56 1011.2
20170528023058 18 249 0.0 3.2 0.00 0.00 0.00 56 1011.2
20170528022757 18 265 3.2 3.2 0.00 0.00 0.00 56 1011.1
20170528022457 19 234 0.0 4.8 0.00 0.00 0.00 55 1011.2
20170528022325 19 237 1.6 6.4 0.00 0.00 0.00 55 1011.3
20170528022155 19 237 1.6 6.4 0.00 0.00 0.00 55 1011.3
20170528022011 19 229 4.8 6.4 0.00 0.00 0.00 55 1011.3
20170528021854 19 229 4.8 6.4 0.00 0.00 0.00 55 1011.3
20170528021558 20 270 6.4 6.4 0.00 0.00 0.00 54 1011.3
20170528021254 20 225 1.6 9.7 0.00 0.00 0.00 54 1011.2
20170528020951 20 258 4.8 9.7 0.00 0.00 0.00 54 1011.2
20170528020157 20 256 3.2 8.0 0.00 0.00 0.00 52 1011.2
20170528020049 20 256 3.2 8.0 0.00 0.00 0.00 52 1011.2
20170528015936 21 236 3.2 11.3 0.00 0.00 0.00 52 1011.0
20170528015748 21 236 3.2 11.3 0.00 0.00 0.00 52 1011.0
20170528015308 21 234 4.8 8.0 0.00 0.00 0.00 52 1011.0
20170528015144 21 234 4.8 8.0 0.00 0.00 0.00 52 1011.0
20170528015015 21 254 6.4 6.4 0.00 0.00 0.00 52 1011.1
20170528014845 21 254 6.4 6.4 0.00 0.00 0.00 52 1011.1
20170528014542 21 252 4.8 6.4 0.00 0.00 0.00 51 1010.9
20170528014419 21 254 4.8 8.0 0.00 0.00 0.00 51 1011.1
20170528014241 21 254 4.8 8.0 0.00 0.00 0.00 51 1011.1
20170528014121 21 249 6.4 12.9 0.00 0.00 0.00 51 1011.1
20170528013940 21 249 6.4 12.9 0.00 0.00 0.00 51 1011.1
20170528013830 22 254 11.3 11.3 0.00 0.00 0.00 50 1011.1
20170528013640 22 254 11.3 11.3 0.00 0.00 0.00 50 1011.1
20170528013445 22 261 8.0 8.0 0.00 0.00 0.00 50 1011.1
20170528013337 22 261 8.0 8.0 0.00 0.00 0.00 50 1011.1
20170528013204 22 236 1.6 8.0 0.00 0.00 0.00 50 1011.2
20170528013036 22 236 1.6 8.0 0.00 0.00 0.00 50 1011.2
20170528012914 22 239 3.2 6.4 0.00 0.00 0.00 50 1011.1
20170528012735 22 239 3.2 6.4 0.00 0.00 0.00 50 1011.1
20170528012551 22 222 3.2 11.3 0.00 0.00 0.00 50 1011.0
20170528012436 22 222 3.2 11.3 0.00 0.00 0.00 50 1011.0
20170528012324 22 245 6.4 11.3 0.00 0.00 0.00 49 1011.1
20170528012133 22 245 6.4 11.3 0.00 0.00 0.00 49 1011.1
20170528011832 22 254 6.4 8.0 0.00 0.00 0.00 49 1011.1
20170528011531 22 252 4.8 8.0 0.00 0.00 0.00 49 1011.0
20170528011401 22 229 1.6 8.0 0.00 0.00 0.00 49 1011.1
20170528011230 22 229 1.6 8.0 0.00 0.00 0.00 49 1011.1
20170528011102 22 263 1.6 8.0 0.00 0.00 0.00 49 1011.0
20170528010930 22 263 1.6 8.0 0.00 0.00 0.00 49 1011.0
20170528010629 22 180 3.2 6.4 0.00 0.00 0.00 49 1011.1
20170528010431 22 189 1.6 4.8 0.00 0.00 0.00 49 1011.1
20170528010326 22 189 1.6 4.8 0.00 0.00 0.00 49 1011.1
20170528010145 22 180 0.0 8.0 0.00 0.00 0.00 49 1011.0
20170528010025 22 180 0.0 8.0 0.00 0.00 0.00 49 1011.0
20170528005837 22 230 4.8 8.0 0.00 0.00 0.00 49 1011.1
20170528005724 22 230 4.8 8.0 0.00 0.00 0.00 49 1011.1
20170528005237 23 236 3.2 16.1 0.00 0.00 0.00 49 1011.0
20170528005122 23 236 3.2 16.1 0.00 0.00 0.00 49 1011.0
20170528004933 23 263 8.0 16.1 0.00 0.00 0.00 48 1011.0
20170528004822 23 263 8.0 16.1 0.00 0.00 0.00 48 1011.0
20170528004625 23 258 11.3 11.3 0.00 0.00 0.00 48 1011.0
20170528004520 23 258 11.3 11.3 0.00 0.00 0.00 48 1011.0
20170528004220 23 251 0.0 11.3 0.00 0.00 0.00 48 1011.1
20170528004048 23 243 8.0 11.3 0.00 0.00 0.00 48 1011.1
20170528003918 23 243 8.0 11.3 0.00 0.00 0.00 48 1011.1
20170528003736 23 261 11.3 11.3 0.00 0.00 0.00 48 1011.1
20170528003616 23 261 11.3 11.3 0.00 0.00 0.00 48 1011.1
20170528003423 23 250 1.6 9.7 0.00 0.00 0.00 48 1011.1
20170528003315 23 250 1.6 9.7 0.00 0.00 0.00 48 1011.1
20170528003014 23 227 3.2 11.3 0.00 0.00 0.00 48 1011.1
20170528002837 23 241 4.8 9.7 0.00 0.00 0.00 47 1011.0
20170528002713 23 241 4.8 9.7 0.00 0.00 0.00 47 1011.0
20170528002529 23 261 6.4 14.5 0.00 0.00 0.00 47 1011.1
20170528002412 23 261 6.4 14.5 0.00 0.00 0.00 47 1011.1
20170528002237 23 261 6.4 14.5 0.00 0.00 0.00 47 1010.9
20170528002111 23 261 6.4 14.5 0.00 0.00 0.00 47 1010.9
20170528001632 24 247 8.0 11.3 0.00 0.00 0.00 47 1010.9
20170528001509 24 247 8.0 11.3 0.00 0.00 0.00 47 1010.9
20170528001345 24 245 1.6 12.9 0.00 0.00 0.00 47 1010.9
20170528001208 24 245 1.6 12.9 0.00 0.00 0.00 47 1010.9
20170528001043 24 247 4.8 9.7 0.00 0.00 0.00 47 1010.8
20170528000906 24 247 4.8 9.7 0.00 0.00 0.00 47 1010.8
20170528000859 24 254 6.4 11.3 0.00 0.00 0.00 47 1010.8
20170528000605 24 254 6.4 11.3 0.00 0.00 0.00 47 1010.8
20170528000440 24 225 0.0 9.7 0.00 0.00 0.00 47 1010.8
20170528000305 24 225 0.0 9.7 0.00 0.00 0.00 47 1010.8
20170527235915 24 256 12.9 12.9 0.00 0.00 0.00 47 1010.8
20170527235702 24 256 12.9 12.9 0.00 0.00 0.00 47 1010.8
20170527235403 24 240 0.0 12.9 0.00 0.00 0.00 47 1010.8
20170527235104 24 220 3.2 16.1 0.00 0.00 0.00 47 1010.9
20170527234458 24 220 0.0 9.7 0.00 0.00 0.00 46 1010.9
20170527234158 24 238 8.0 16.1 0.00 0.00 0.00 46 1011.1
20170527233856 25 252 12.9 12.9 0.00 0.00 0.00 46 1011.0
20170527233753 25 0 0.0 9.7 0.00 0.00 0.00 47 1011.1
20170527233559 25 0 0.0 9.7 0.00 0.00 0.00 47 1011.1
20170527233431 25 216 1.6 8.0 0.00 0.00 0.00 47 1011.1
20170527233253 25 216 1.6 8.0 0.00 0.00 0.00 47 1011.1
20170527233116 25 202 1.6 14.5 0.00 0.00 0.00 47 1011.1
20170527232956 25 202 1.6 14.5 0.00 0.00 0.00 47 1011.1
20170527232651 25 220 0.0 12.9 0.00 0.00 0.00 47 1011.1
20170527232523 25 237 4.8 14.5 0.00 0.00 0.00 47 1011.1
20170527232350 25 237 4.8 14.5 0.00 0.00 0.00 47 1011.1
20170527232208 25 240 6.4 11.3 0.00 0.00 0.00 47 1010.9
20170527232050 25 240 6.4 11.3 0.00 0.00 0.00 47 1010.9
20170527231447 25 180 11.3 11.3 0.00 0.00 0.00 47 1010.9
20170527231254 25 252 8.0 14.5 0.00 0.00 0.00 47 1011.0
20170527231146 25 252 8.0 14.5 0.00 0.00 0.00 47 1011.0
20170527230844 25 261 12.9 14.5 0.00 0.00 0.00 47 1010.9
20170527230241 25 232 0.0 11.3 0.00 0.00 0.00 47 1011.2
20170527225936 25 261 9.7 12.9 0.00 0.00 0.00 47 1011.3
20170527225637 25 236 4.8 11.3 0.00 0.00 0.00 48 1011.4
20170527225334 25 245 3.2 11.3 0.00 0.00 0.00 48 1011.2
20170527224908 25 252 4.8 11.3 0.00 0.00 0.00 48 1011.2
20170527224732 25 252 4.8 11.3 0.00 0.00 0.00 48 1011.2
20170527223831 25 237 6.4 11.3 0.00 0.00 0.00 48 1011.4
20170527223528 25 218 3.2 17.7 0.00 0.00 0.00 48 1011.3
20170527223228 25 254 12.9 16.1 0.00 0.00 0.00 47 1011.3
20170527222925 25 256 11.3 16.1 0.00 0.00 0.00 47 1011.2
20170527222624 25 245 9.7 16.1 0.00 0.00 0.00 47 1011.2
20170527222436 25 258 12.9 16.1 0.00 0.00 0.00 47 1011.3
20170527222323 25 258 12.9 16.1 0.00 0.00 0.00 47 1011.3
20170527222128 25 254 8.0 12.9 0.00 0.00 0.00 47 1011.3
20170527222024 25 254 8.0 12.9 0.00 0.00 0.00 47 1011.3
20170527221722 25 256 8.0 11.3 0.00 0.00 0.00 47 1011.2
20170527221531 25 235 4.8 17.7 0.00 0.00 0.00 47 1011.3
20170527221420 25 235 4.8 17.7 0.00 0.00 0.00 47 1011.3